This demonstration page uses our WeatherBlox Daily Observations layout. Learn more.

39.92423, -83.80882

Hourly Observations for December 11, 2019

Temp ( °F °C ) Dew Point ( °F °C ) Humidity (%) Winds ( mph kmh ) Pressure ( in mb ) Visibility ( mi km ) Precip ( " mm )
12:56 am 00:56 Clear 20 -6.7 15 -9.4 81 81 WSW 8 13 30.38 1029 10 16.0934 0 0
1:56 am 01:56 Clear 19 -7.2 15 -9.4 84 84 WSW 7 11 30.39 1029 10 16.0934 0 0
2:56 am 02:56 Clear 19 -7.2 15 -9.4 84 84 WSW 6 9 30.4 1030 10 16.0934 0 0
3:56 am 03:56 Clear 18 -7.8 14 -10 84 84 SW 6 9 30.4 1029 10 16.0934 0 0
4:56 am 04:56 Clear 17 -8.3 14 -10 88 88 SSW 7 11 30.4 1030 10 16.0934 0 0
5:56 am 05:56 Mostly Clear 17 -8.3 14 -10 88 88 SW 8 13 30.43 1030 10 16.0934 0 0
6:56 am 06:56 Cloudy 18 -7.8 15 -9.4 88 88 SW 10 17 30.43 1031 10 16.0934 0 0
7:56 am 07:56 Mostly Cloudy 19 -7.2 16 -8.9 88 88 SW 10 17 30.44 1031 10 16.0934 0 0
8:56 am 08:56 Sunny 21 -6.1 18 -7.8 88 88 SSW 9 15 30.41 1030 10 16.0934 0 0
9:56 am 09:56 Sunny 25 -3.9 19 -7.2 78 78 SW 13 20 30.42 1030 10 16.0934 0 0
10:56 am 10:56 Cloudy 26 -3.3 20 -6.7 78 78 SW 13 20 30.46 1031 10 16.0934 0 0
11:56 am 11:56 Cloudy 28 -2.2 20 -6.7 72 72 WSW 13 20 30.47 1032 10 16.0934 0 0
12:15 pm 12:15 Cloudy with Light Snow 28 -2 21 -6 74 74 WSW 17 28 30.47 1032 10 16.0934 0.001 0.001
12:36 pm 12:36 Windy with Snow Likely 28 -2 21 -6 74 74 WSW 21 33 30.46 1032 9 14.48406 0.001 0.001
12:56 pm 12:56 Cloudy with Light Snow 28 -2.2 21 -6.1 75 75 WSW 17 28 30.47 1032 9 14.48406 0.001 0.001
1:20 pm 13:20 Cloudy with Light Snow 28 -2 21 -6 74 74 WSW 15 24 30.48 1032 9 14.48406 0.001 0.001
1:42 pm 13:42 Cloudy with Light Snow 28 -2 21 -6 74 74 WSW 16 26 30.48 1032 9 14.48406 0.001 0.001
1:56 pm 13:56 Cloudy with Light Snow 29 -1.7 22 -5.6 75 75 WSW 16 26 30.47 1032 9 14.48406 0.001 0.001
2:56 pm 14:56 Cloudy with Light Snow 29 -1.7 22 -5.6 75 75 W 13 20 30.49 1033 9 14.48406 0.001 0.001
3:56 pm 15:56 Cloudy 29 -1.7 20 -6.7 69 69 WNW 14 22 30.53 1034 10 16.0934 0.001 0.001
4:56 pm 16:56 Cloudy 28 -2.2 20 -6.7 72 72 W 10 17 30.54 1034 10 16.0934 0 0
5:56 pm 17:56 Cloudy 27 -2.8 20 -6.7 75 75 WNW 9 15 30.57 1035 10 16.0934 0 0
6:56 pm 18:56 Mostly Cloudy 24 -4.4 19 -7.2 81 81 NW 6 9 30.58 1035 10 16.0934 0 0
7:56 pm 19:56 Clear 22 -5.6 18 -7.8 85 85 N 6 9 30.58 1036 10 16.0934 0 0
8:56 pm 20:56 Clear 19 -7.2 16 -8.9 88 88 Calm 30.6 1036 10 16.0934 0 0
9:56 pm 21:56 Clear 19 -7.2 16 -8.9 88 88 ENE 5 7 30.6 1036 10 16.0934 0 0
10:56 pm 22:56 Clear 18 -7.8 16 -8.9 92 92 ESE 6 9 30.6 1036 10 16.0934 0 0
11:56 pm 23:56 Clear 16 -8.9 14 -10 92 92 E 6 9 30.59 1036 10 16.0934 0 0

Powered by AerisWeather